Find OneWeb SL0699

NORAD ID: 61605 Int'l Des: 2024-188 Owner: ONEWEBE Country: UK Constellation: oneweb operational
LEOCIRCULARPOLARONEWEB_TYPE

实时位置

正在加载3D地球...

关于 OneWeb SL0699

正在加载描述...

即将过境

Passes for default location (London). Set your location on the main map for personalized predictions.

高度历史

Loading altitude history...

两行轨道根数

1 61605U 24188M 26124.08089112 .00000695 00000-0 19554-2 0 9991
2 61605 87.8853 45.0428 0001640 58.1399 301.9888 13.10373199 77534
Epoch: May 4, 2026 • Age: 10 hours

当前状态

高度 1249.4 km
速度 7.23 km/s
星下点 -70.78°S, 177.1°W
发射日期 Oct 20, 2024
运行时间 1.5 years
类型 internet

技术详情

分类 Payload
质量 148.00 kg
干质量 140.00 kg
总质量 148.00 kg
长度 1.30 m
直径 1.00 m
跨度 5.00 m
形状 Trapezoid+2 pan
制造商 ONEWUS
平台类型 ARROW
阶段状态 In Orbit
所有者/国家 ONEWEBE/UK

Most Searched